Location: Lobos
(35.3000°S, 59.0940°W)
Time: 23:39:07
(UTC-03:00)

EO-79 - Visible Passes

Search period start: 24 November 2020 00:00
Search period end: 04 December 2020 00:00
Orbit: 591 x 609 km, 97.9° (Epoch: 24 November)

Date Brightness Start Highest point End Pass type
(mag) Time Alt. Az. Time Alt. Az. Time Alt. Az.
24 Nov ? 00:29:11 18° SSE 00:29:11 18° SSE 00:30:41 10° SSE visible
24 Nov ? 02:05:56 11° SW 02:05:56 11° SW 02:06:11 10° SW visible
25 Nov ? 00:40:25 21° SSE 00:40:25 21° SSE 00:42:08 10° S visible
26 Nov ? 00:51:39 23° SSE 00:51:39 23° SSE 00:53:28 10° S visible
27 Nov ? 01:02:53 25° S 01:02:53 25° S 01:04:45 10° S visible
28 Nov ? 01:14:07 25° S 01:14:07 25° S 01:15:57 10° S visible
29 Nov ? 01:25:21 24° SSW 01:25:21 24° SSW 01:27:05 10° SSW visible
29 Nov ? 23:59:50 11° SE 23:59:50 11° SE 00:00:29 10° SE visible
30 Nov ? 01:36:35 21° SSW 01:36:35 21° SSW 01:38:09 10° SSW visible
01 Dec ? 00:11:05 14° SE 00:11:05 14° SE 00:12:28 10° SSE visible
01 Dec ? 01:47:50 18° SW 01:47:50 18° SW 01:49:09 10° SSW visible
02 Dec ? 00:22:19 18° SE 00:22:19 18° SE 00:24:07 10° SSE visible
02 Dec ? 01:59:04 15° SW 01:59:04 15° SW 02:00:02 10° SW visible
03 Dec ? 00:33:33 22° SE 00:33:33 22° SE 00:35:36 10° SSE visible
03 Dec ? 02:10:18 12° SW 02:10:18 12° SW 02:10:48 10° SW visible
